Location: Moscow
(38.3171°N, 79.0889°W)
Time: 22:28:12
(UTC+00:00)

Cosmos 1603 - Pass Details

Date: 07 November 2025
Orbit: 830 x 858 km, 71.0° (Epoch: 14 December)

Event Time Altitude Azimuth Distance (km) Brightness Sun altitude
Rises 23:02:35 0° 337° (NNW) 3,421 7.0 -10.7°
Reaches altitude 10° 23:05:02 10° 337° (NNW) 2,478 6.3 -11.1°
Maximum altitude 23:10:44 88° 254° (WSW) 848 3.7 -12.2°
Drops below altitude 10° 23:16:22 10° 160° (SSE) 2,443 6.0 -13.3°
Sets 23:18:47 0° 160° (SSE) 3,370 6.7 -13.8°
